Location: Krasnoyarskiy Pitomnik
(51.1333°N, 71.6167°E)
Time: 11:56:36
(UTC+00:00)

Transit 2A - Pass Details

Date: 16 April 2024
Orbit: 593 x 958 km, 66.7° (Epoch: 30 May)

Event Time Altitude Azimuth Distance (km) Brightness Sun altitude
Rises 07:19:45 0° 309° (NW) 3,030 8.9 49.2°
Reaches altitude 10° 07:23:07 10° 335° (NNW) 2,190 8.1 49.2°
Maximum altitude 07:25:47 14° 8° (N) 1,972 7.9 49.1°
Drops below altitude 10° 07:28:35 10° 40° (NE) 2,318 8.3 49.1°
Sets 07:32:20 0° 65° (ENE) 3,336 9.1 49.0°
